Wetbulb
69.20 70.12 72.92 72.85 72.94 73.64 73.64 73.65 73.51 73.58 73.68 73.18 72.63 72.69 73.12 72.96 72.32 72.23 71.92 70.65 70.28 70.51 70.87 70.39 70.52 70.37 70.70 70.54 69.80 69.88 70.56 71.28 71.52 71.53 71.70 71.44 71.96 71.79 71.75 72.07 72.35 70.99 73.30
69.99 71.52 73.33 73.29 72.99 73.63 73.65 73.37 73.48 73.78 73.63 73.13 72.80 72.55 72.31 72.34 72.33 71.98 72.00 70.45 70.33 70.08 70.32 70.36 69.94 70.01 69.97 69.93 69.88 69.43 69.61 69.67 69.99 70.00 70.10 69.80 70.72 71.51 71.88 72.30 72.41 71.81 72.83
69.58 70.74 71.84 72.97 73.03 72.80 73.28 72.96 72.75 72.62 72.75 72.62 72.31 72.78 72.33 71.63 71.88 72.01 71.49 70.52 70.39 71.62 71.94 70.58 70.07 70.03 69.48 69.23 69.05 69.04 68.68 68.00 67.67 68.38 69.11 67.38 68.56 71.15 71.40 72.03 72.28 72.66 72.47
70.15 70.63 71.05 72.80 72.34 72.45 72.59 72.32 72.30 72.33 72.38 72.13 72.01 71.90 72.10 71.52 71.51 71.86 71.38 70.70 70.36 70.63 70.71 70.13 69.63 68.89 68.46 68.11 68.08 68.11 68.16 67.87 66.94 67.29 65.21 67.72 68.94 70.96 71.04 71.25 71.72 72.23 72.00
68.40 70.13 71.01 72.11 72.25 72.15 72.26 72.17 71.98 71.96 71.90 71.84 71.72 71.98 72.14 72.02 71.44 71.47 71.25 70.95 70.98 70.36 70.28 69.62 68.93 68.41 68.05 67.88 67.71 68.01 67.90 67.23 65.76 66.43 64.07 66.48 67.41 69.79 70.64 70.91 70.94 71.13 71.38
68.99 69.09 70.47 72.01 71.84 72.36 72.11 71.94 71.84 71.51 71.67 71.57 71.73 71.62 71.46 71.27 70.88 70.86 71.14 70.71 70.91 70.83 69.77 69.70 69.50 68.98 68.28 67.88 67.43 67.27 66.84 65.94 64.14 64.08 65.41 67.09 65.96 69.95 70.30 70.41 70.31 70.14 70.22
66.85 68.73 69.52 71.33 71.20 71.13 71.88 72.03 71.95 71.32 71.32 71.67 71.65 71.35 71.38 71.48 71.08 71.10 70.77 70.50 70.26 70.32 69.70 69.01 68.96 69.04 68.76 68.19 67.56 66.73 66.09 65.11 59.96 60.72 62.74 65.37 66.15 69.28 70.75 70.13 69.60 69.61 69.46
64.68 66.72 67.18 69.41 69.69 70.51 70.96 71.47 71.62 71.45 70.86 70.94 71.08 71.27 71.16 70.84 70.59 70.46 70.40 70.26 70.14 70.08 70.03 69.28 68.79 68.38 68.49 68.41 68.15 67.31 66.29 64.62 60.39 59.03 60.74 63.16 69.20 69.03 69.77 70.35 70.36 69.74 69.47
63.36 65.34 63.64 66.66 65.85 67.86 68.98 70.47 70.96 71.19 70.97 70.52 70.56 70.83 71.01 70.97 70.65 70.01 70.09 69.99 69.93 69.91 69.93 70.00 69.35 68.80 68.21 68.02 68.39 68.43 66.69 65.11 58.86 58.60 61.60 62.72 67.44 68.12 69.27 69.83 69.98 70.19 69.74
60.36 60.55 60.58 60.95 63.34 64.96 65.84 68.41 69.03 69.56 69.71 69.50 69.08 68.49 68.00 68.19 69.04 69.10 68.13 68.87 70.01 69.59 69.71 69.54 69.25 69.12 69.08 69.19 68.92 68.32 66.94 63.96 58.29 58.52 59.15 62.06 67.83 66.64 68.30 68.72 69.21 69.65 69.82
56.79 57.86 58.84 59.42 60.77 62.38 63.72 65.04 66.97 66.63 66.02 66.17 66.37 65.87 65.29 65.39 65.44 62.82 64.44 66.53 67.99 68.26 68.49 68.62 68.37 68.62 68.46 67.67 68.06 67.52 66.45 62.56 59.27 58.92 58.78 62.78 67.77 67.14 66.72 67.55 68.28 69.04 69.33
51.17 53.17 55.13 57.08 58.42 59.65 61.40 61.95 64.37 64.45 61.09 59.51 62.87 64.69 62.81 63.78 64.75 62.48 62.35 64.83 66.09 65.63 66.36 67.45 67.69 67.63 66.35 64.86 64.04 64.94 64.03 62.96 61.13 59.91 59.37 63.94 67.47 67.90 66.92 67.35 67.54 68.49 68.36
50.03 51.31 51.89 52.26 52.74 52.59 54.31 57.14 56.04 56.49 56.97 57.09 57.48 62.08 61.36 62.64 61.74 62.56 62.35 60.77 61.91 59.32 60.11 61.31 62.89 63.48 63.32 63.58 63.13 62.74 63.26 62.60 62.06 61.38 61.67 63.93 67.07 68.07 67.32 66.91 67.82 68.10 68.45
49.65 49.62 49.63 49.41 49.27 48.99 49.72 51.03 49.49 50.18 51.34 55.35 55.84 56.05 54.54 54.63 54.68 54.92 55.64 56.54 57.24 56.90 55.99 55.85 56.48 57.20 60.32 62.13 62.62 63.74 64.47 64.32 62.07 62.73 62.19 62.90 65.56 67.71 68.16 67.32 67.21 67.61 68.30
49.32 48.32 48.33 48.47 47.99 48.88 48.23 48.16 48.57 48.73 49.21 50.86 52.37 53.39 53.42 51.98 52.16 52.33 52.45 53.82 55.55 57.06 57.31 56.86 56.38 55.21 54.61 55.73 58.15 57.74 59.90 63.11 62.54 63.84 63.54 61.74 64.12 66.92 67.24 66.91 66.93 67.24 67.84
49.01 47.70 48.29 48.37 47.97 48.33 47.63 47.71 47.49 48.01 49.10 49.72 49.90 50.41 51.18 50.89 50.72 50.95 50.83 51.08 51.31 52.61 54.07 56.60 56.57 56.05 55.39 55.04 54.99 55.64 55.94 56.92 58.25 61.39 63.33 62.21 62.75 63.43 63.99 64.61 64.99 65.51 66.33
47.33 47.86 47.91 48.19 48.32 48.02 48.03 48.21 48.34 49.32 49.83 49.21 49.73 50.72 51.06 50.88 50.54 50.33 50.22 50.24 50.54 51.18 51.92 55.36 55.46 55.68 54.72 54.95 53.95 54.30 54.17 54.25 54.95 56.55 57.79 59.81 62.66 62.30 62.65 63.63 64.47 65.20 66.08
46.61 47.02 48.38 50.16 47.99 47.74 47.75 47.89 48.65 49.05 48.97 49.21 50.00 50.79 51.62 51.48 51.00 50.41 50.07 49.87 50.52 50.79 51.10 53.35 53.20 52.49 52.34 52.19 51.66 51.87 52.73 53.08 53.26 53.67 56.77 57.15 58.14 59.18 60.37 62.25 63.40 64.31 64.45
46.19 46.72 46.70 47.02 46.96 47.46 47.47 48.05 48.19 48.48 48.37 48.85 48.89 49.37 50.80 51.29 51.15 50.19 50.05 50.12 50.59 49.84 49.47 51.52 51.98 52.22 50.97 51.10 51.32 51.35 50.80 50.56 51.04 53.09 52.50 53.65 55.11 55.82 56.79 59.19 60.62 61.35 62.33
45.59 45.98 45.98 46.17 46.18 46.92 46.90 46.99 47.17 47.56 47.65 48.09 48.25 48.26 49.15 49.30 49.48 49.55 49.42 49.26 50.26 49.68 49.24 49.12 49.40 51.22 51.27 50.48 51.08 50.15 49.82 50.66 51.04 50.51 50.80 52.18 52.78 54.29 54.94 55.59 55.87 56.58 59.32
45.30 45.60 45.52 45.62 45.36 45.90 44.59 44.36 44.45 45.03 46.07 46.75 47.23 48.02 48.00 48.62 49.14 47.97 47.49 47.54 48.09 47.69 47.63 48.45 48.36 48.42 49.13 49.65 48.10 48.10 48.18 48.81 48.83 49.82 50.69 50.87 51.59 53.52 53.89 54.41 54.80 55.17 55.44
45.09 45.44 45.40 45.77 45.25 45.46 44.90 44.64 45.15 45.12 45.07 45.42 45.97 46.91 47.82 48.06 48.23 48.08 47.02 46.88 47.05 46.81 46.78 46.88 47.12 46.87 47.32 47.68 45.87 45.73 44.12 46.08 48.89 48.86 50.15 51.32 51.35 52.77 53.66 54.29 53.96 55.00 54.87
44.84 44.45 45.39 45.74 45.65 45.90 45.99 45.89 45.27 45.35 43.95 43.63 44.39 44.94 45.95 47.35 47.93 47.36 46.69 46.13 46.27 46.34 45.67 45.96 45.94 46.03 45.13 46.69 46.97 45.64 42.54 41.45 44.64 47.17 48.09 50.15 50.30 51.03 51.66 52.47 53.27 53.65 54.88
44.16 45.06 45.73 46.26 46.42 46.14 45.90 45.02 43.66 42.57 41.18 42.33 43.25 44.07 44.96 45.93 46.34 46.72 46.28 45.74 45.63 45.57 44.51 44.48 45.70 44.70 45.00 43.44 45.40 47.74 46.69 46.83 43.76 42.57 46.78 47.76 48.49 49.32 49.77 49.86 50.47 51.35 51.83
44.53 44.79 45.50 46.09 45.97 44.99 44.13 43.27 42.48 41.56 42.26 42.99 43.01 42.69 43.48 44.25 45.14 45.78 45.41 44.63 44.36 44.65 44.11 44.08 43.58 43.13 43.89 43.36 43.40 43.73 43.48 44.61 45.21 45.08 43.26 44.49 47.56 48.62 48.99 49.02 49.03 49.61 51.01
44.51 44.68 45.00 45.11 44.20 44.02 43.64 42.89 42.56 42.34 42.10 41.95 41.25 41.13 41.94 42.74 43.55 44.26 44.91 43.39 43.17 43.16 43.25 43.59 43.62 42.97 42.97 42.77 43.01 43.10 44.74 43.21 43.51 44.84 44.46 44.33 45.60 48.51 47.39 48.45 48.42 48.53 49.16
MSLP
1013.39 1013.27 1013.33 1013.37 1013.43 1013.57 1013.68 1013.76 1013.89 1014.02 1014.17 1014.35 1014.57 1014.76 1014.92 1015.06 1015.26 1015.33 1015.47 1015.59 1015.64 1015.70 1015.79 1015.83 1015.84 1015.88 1015.83 1015.96 1015.95 1015.95 1015.97 1015.98 1015.99 1015.99 1015.91 1015.82 1015.76 1015.71 1015.73 1015.75 1015.71 1015.71 1015.81
1012.68 1012.98 1013.35 1013.38 1013.40 1013.51 1013.71 1013.92 1014.03 1014.13 1014.33 1014.50 1014.69 1014.97 1015.10 1015.23 1015.39 1015.51 1015.61 1015.77 1015.81 1015.90 1015.99 1016.07 1016.24 1016.25 1016.29 1016.36 1016.33 1016.31 1016.33 1016.37 1016.40 1016.41 1016.33 1016.26 1016.04 1016.04 1015.97 1016.01 1016.01 1015.94 1016.16
1013.07 1013.10 1013.14 1013.42 1013.58 1013.65 1013.82 1014.00 1014.20 1014.36 1014.55 1014.76 1014.96 1015.00 1015.25 1015.42 1015.46 1015.63 1015.77 1015.96 1016.01 1016.11 1016.17 1016.36 1016.48 1016.61 1016.63 1016.71 1016.70 1016.65 1016.63 1016.67 1016.68 1016.66 1016.67 1016.63 1016.47 1016.36 1016.30 1016.36 1016.37 1016.41 1016.53
1013.31 1013.48 1013.42 1013.34 1013.53 1013.86 1013.96 1014.09 1014.27 1014.51 1014.79 1014.92 1015.03 1015.18 1015.37 1015.55 1015.69 1015.79 1015.92 1016.13 1016.28 1016.40 1016.52 1016.68 1016.78 1016.90 1016.97 1016.97 1016.98 1016.97 1016.92 1016.85 1016.77 1016.72 1016.88 1016.88 1016.74 1016.63 1016.63 1016.67 1016.64 1016.69 1016.71
1013.68 1013.80 1013.63 1013.65 1013.65 1013.81 1014.13 1014.19 1014.39 1014.60 1014.82 1015.04 1015.33 1015.41 1015.57 1015.64 1015.85 1015.91 1016.16 1016.25 1016.53 1016.71 1016.75 1016.87 1016.97 1017.04 1017.10 1017.14 1017.15 1017.24 1017.21 1017.15 1017.09 1016.88 1017.02 1017.11 1017.08 1016.90 1016.84 1016.90 1016.95 1017.09 1017.18
1013.90 1013.93 1014.07 1014.08 1014.05 1014.03 1014.24 1014.56 1014.63 1014.74 1014.98 1015.08 1015.31 1015.53 1015.65 1015.83 1016.02 1016.11 1016.32 1016.46 1016.65 1016.81 1016.90 1017.06 1017.09 1017.09 1017.15 1017.22 1017.29 1017.42 1017.47 1017.36 1017.32 1017.38 1017.36 1017.29 1017.27 1017.06 1017.06 1017.23 1017.28 1017.37 1017.46
1014.24 1014.27 1014.07 1014.37 1014.39 1014.64 1014.57 1014.60 1014.73 1014.88 1015.11 1015.22 1015.28 1015.53 1015.74 1015.93 1016.05 1016.21 1016.32 1016.46 1016.65 1016.81 1016.94 1017.06 1017.17 1017.24 1017.31 1017.38 1017.45 1017.57 1017.72 1017.73 1017.74 1017.72 1017.75 1017.63 1017.34 1017.12 1017.06 1017.30 1017.48 1017.53 1017.64
1014.89 1014.59 1014.99 1014.55 1014.97 1015.04 1014.99 1014.95 1015.01 1015.04 1015.17 1015.43 1015.51 1015.66 1015.83 1015.97 1016.19 1016.28 1016.42 1016.56 1016.68 1016.79 1016.96 1017.06 1017.17 1017.30 1017.40 1017.47 1017.57 1017.71 1017.84 1017.93 1018.02 1018.07 1017.96 1017.83 1017.42 1017.19 1017.18 1017.33 1017.44 1017.61 1017.76
1015.06 1015.10 1014.76 1014.68 1015.42 1015.39 1015.52 1014.94 1014.80 1015.23 1015.39 1015.67 1015.85 1015.86 1015.98 1016.17 1016.34 1016.50 1016.65 1016.78 1016.78 1016.85 1016.95 1017.05 1017.20 1017.36 1017.46 1017.55 1017.65 1017.79 1017.97 1018.11 1018.23 1018.18 1017.97 1017.92 1017.68 1017.33 1017.22 1017.38 1017.50 1017.58 1017.72
1015.42 1015.52 1015.45 1015.67 1015.88 1015.67 1015.70 1015.27 1015.17 1015.18 1015.68 1015.91 1016.08 1016.26 1016.40 1016.47 1016.61 1016.65 1016.77 1016.85 1016.91 1017.08 1017.11 1017.13 1017.21 1017.26 1017.39 1017.49 1017.68 1017.77 1017.96 1018.18 1018.35 1018.27 1018.16 1018.02 1017.81 1017.56 1017.48 1017.51 1017.66 1017.74 1017.76
1016.17 1015.99 1016.06 1016.54 1016.13 1015.77 1015.70 1015.59 1015.80 1016.00 1016.16 1016.18 1016.31 1016.51 1016.71 1016.87 1017.05 1017.16 1017.26 1017.26 1017.16 1017.23 1017.23 1017.31 1017.24 1017.40 1017.45 1017.50 1017.63 1017.77 1017.89 1018.21 1018.40 1018.29 1018.18 1018.00 1017.88 1017.69 1017.60 1017.61 1017.68 1017.80 1017.92
1016.54 1016.47 1015.98 1016.16 1016.48 1016.53 1016.52 1016.11 1016.38 1016.44 1016.69 1016.71 1016.57 1016.63 1016.89 1017.06 1017.23 1017.45 1017.48 1017.55 1017.47 1017.48 1017.49 1017.37 1017.34 1017.44 1017.64 1017.73 1017.79 1017.80 1017.99 1018.13 1018.36 1018.34 1018.14 1017.91 1017.81 1017.70 1017.71 1017.76 1017.74 1017.76 1017.87
1016.87 1016.87 1016.55 1016.27 1016.24 1016.49 1016.90 1016.84 1016.95 1017.02 1017.10 1017.02 1017.05 1016.91 1017.05 1017.24 1017.49 1017.63 1017.69 1017.79 1017.65 1017.69 1017.86 1017.67 1017.47 1017.70 1017.87 1017.88 1017.89 1017.89 1017.98 1018.19 1018.32 1018.24 1018.10 1017.87 1017.83 1017.71 1017.65 1017.77 1017.84 1017.90 1017.92
1017.05 1017.15 1016.92 1016.73 1016.60 1016.76 1016.89 1017.26 1017.58 1017.58 1017.66 1017.55 1017.65 1017.65 1017.40 1017.68 1017.98 1018.10 1018.13 1018.16 1018.11 1018.09 1018.23 1018.32 1017.97 1017.68 1018.17 1018.04 1018.02 1017.93 1017.95 1018.02 1018.26 1018.21 1018.05 1017.86 1017.74 1017.72 1017.59 1017.58 1017.71 1017.80 1017.85
1017.18 1017.34 1017.39 1017.37 1017.44 1017.10 1017.31 1017.61 1017.68 1018.09 1018.23 1018.27 1018.12 1018.19 1018.03 1018.20 1018.44 1018.44 1018.53 1018.48 1018.48 1018.34 1018.37 1018.16 1017.97 1018.20 1018.46 1018.52 1018.28 1018.36 1018.29 1018.13 1018.17 1018.07 1017.92 1017.92 1017.80 1017.79 1017.70 1017.58 1017.62 1017.61 1017.69
1017.15 1017.48 1017.71 1017.82 1017.90 1017.85 1017.81 1017.94 1018.20 1018.35 1018.55 1018.48 1018.64 1018.64 1018.60 1018.60 1018.76 1018.93 1019.04 1018.99 1018.82 1018.74 1018.48 1018.43 1018.45 1018.65 1018.82 1018.71 1018.64 1018.71 1018.69 1018.66 1018.50 1018.16 1017.91 1018.01 1017.98 1017.89 1017.81 1017.76 1017.72 1017.68 1017.66
1017.31 1017.50 1017.89 1018.11 1018.21 1018.27 1018.37 1018.45 1018.42 1018.51 1018.72 1018.93 1018.88 1018.86 1018.80 1018.90 1019.07 1019.22 1019.31 1019.33 1019.24 1018.93 1018.72 1018.66 1018.67 1018.74 1018.88 1018.95 1019.18 1018.95 1018.81 1018.71 1018.57 1018.39 1018.33 1018.24 1018.17 1017.99 1018.00 1017.92 1017.80 1017.70 1017.65
1017.63 1017.80 1018.06 1018.18 1018.49 1018.68 1018.80 1019.03 1019.04 1018.88 1018.88 1019.21 1019.19 1019.22 1019.15 1019.14 1019.22 1019.35 1019.49 1019.57 1019.43 1019.22 1019.12 1019.10 1019.15 1019.21 1019.32 1019.43 1019.40 1019.05 1018.92 1018.73 1018.55 1018.46 1018.40 1018.33 1018.36 1018.18 1018.16 1018.02 1017.86 1017.62 1017.34
1017.87 1018.18 1018.30 1018.54 1018.73 1019.04 1019.21 1019.33 1019.66 1019.56 1019.58 1019.51 1019.64 1019.58 1019.48 1019.33 1019.42 1019.59 1019.69 1019.75 1019.60 1019.66 1019.71 1019.70 1019.62 1019.65 1019.65 1019.56 1019.42 1019.21 1018.99 1018.85 1018.45 1018.30 1018.35 1018.09 1018.18 1018.05 1018.19 1018.02 1017.79 1017.50 1017.40
1017.95 1018.19 1018.50 1018.67 1019.03 1019.25 1019.51 1019.83 1019.89 1020.01 1020.15 1020.04 1020.08 1019.98 1019.90 1019.85 1019.74 1019.82 1019.97 1019.92 1019.81 1019.82 1019.96 1019.97 1019.97 1019.84 1019.71 1019.61 1019.50 1019.19 1018.80 1018.64 1018.45 1018.46 1018.34 1017.96 1018.04 1018.03 1017.96 1017.85 1017.83 1017.45 1017.31
1018.33 1018.42 1018.59 1018.80 1019.00 1019.13 1019.82 1020.33 1020.50 1020.61 1020.66 1020.64 1020.52 1020.37 1020.31 1020.26 1020.12 1020.16 1020.26 1020.20 1020.19 1020.33 1020.36 1020.28 1020.14 1020.14 1019.92 1019.67 1019.70 1019.28 1018.75 1018.63 1018.58 1018.50 1018.19 1018.11 1017.97 1017.90 1017.99 1017.91 1017.66 1017.62 1017.38
1017.90 1018.35 1018.74 1019.04 1019.22 1019.35 1019.44 1019.96 1020.34 1020.69 1020.90 1020.81 1020.81 1020.79 1020.68 1020.55 1020.50 1020.48 1020.62 1020.64 1020.60 1020.66 1020.62 1020.56 1020.57 1020.72 1020.60 1020.29 1020.50 1020.22 1019.84 1019.16 1018.72 1018.51 1018.38 1018.33 1018.11 1018.06 1017.91 1017.84 1017.46 1017.56 1017.43
1017.97 1018.29 1018.61 1018.97 1019.45 1019.63 1019.78 1019.94 1020.38 1020.82 1021.03 1021.26 1021.20 1021.17 1021.09 1020.77 1020.74 1020.65 1020.80 1020.89 1020.91 1020.97 1021.01 1021.00 1020.95 1020.89 1021.09 1020.75 1020.62 1020.69 1020.54 1020.38 1019.71 1018.68 1018.45 1018.42 1018.17 1017.94 1017.90 1017.80 1017.44 1017.42 1017.52
1017.86 1018.30 1018.68 1019.08 1019.45 1019.83 1020.06 1020.23 1020.46 1020.88 1021.47 1021.72 1021.78 1021.75 1021.42 1021.18 1021.17 1021.11 1021.09 1021.02 1021.17 1021.33 1021.34 1021.37 1021.29 1021.36 1021.39 1021.49 1020.92 1020.68 1020.68 1020.76 1020.27 1019.40 1018.61 1018.24 1018.14 1018.11 1017.97 1017.91 1017.64 1017.37 1017.44
1017.85 1018.49 1018.97 1019.26 1019.69 1019.96 1020.26 1020.54 1020.88 1021.26 1021.60 1021.88 1022.01 1022.01 1021.94 1021.70 1021.51 1021.41 1021.42 1021.51 1021.51 1021.49 1021.54 1021.61 1021.51 1021.52 1021.48 1021.55 1021.47 1021.32 1020.73 1020.45 1020.21 1020.08 1019.01 1018.77 1018.41 1017.98 1017.98 1017.87 1017.60 1017.52 1017.37
1018.16 1018.79 1019.35 1019.70 1020.16 1020.40 1020.58 1020.89 1021.17 1021.50 1021.89 1022.17 1022.37 1022.45 1022.32 1022.19 1021.99 1021.81 1021.79 1021.86 1021.86 1021.84 1021.78 1021.62 1021.46 1021.53 1021.43 1021.30 1021.35 1021.24 1021.07 1021.01 1020.62 1020.30 1019.56 1019.17 1018.90 1018.20 1018.00 1017.83 1017.75 1017.40 1017.38
Wind_Speed
3 5 10 10 10 11 11 12 12 12 12 14 14 14 14 14 13 12 12 12 11 10 11 11 11 10 11 12 12 12 12 13 12 11 10 9 9 11 9 8 8 8 14
9 7 10 10 11 13 12 12 11 10 11 12 13 14 13 12 12 10 12 11 11 10 11 10 11 10 10 10 11 11 12 11 10 9 9 9 7 10 11 9 9 11 13
7 5 8 9 10 11 13 12 11 10 9 9 11 13 13 11 10 9 11 11 10 10 12 11 11 10 10 10 10 10 10 9 7 4 6 4 5 9 11 11 11 13 13
7 2 5 12 11 12 13 12 11 11 10 10 11 11 12 10 10 10 10 10 9 10 10 10 9 8 8 9 9 10 10 10 8 2 2 3 3 7 8 8 10 13 12
4 3 6 11 13 13 13 13 12 11 11 11 10 10 10 11 9 9 9 9 9 9 9 9 8 7 7 8 8 10 10 11 9 7 3 3 1 3 6 7 9 10 9
5 4 7 10 12 13 12 12 12 12 11 12 11 10 10 9 8 7 8 8 8 8 8 7 6 6 5 6 7 9 10 11 9 6 5 1 1 4 6 7 8 9 8
5 3 7 11 10 11 11 12 12 12 11 11 11 10 10 9 9 8 9 9 8 7 7 7 5 4 3 4 5 8 9 9 6 5 4 3 1 4 7 8 8 8 8
9 7 9 8 7 7 9 10 10 10 11 10 10 10 10 9 8 8 8 8 8 7 6 6 5 4 2 1 4 6 7 7 5 4 2 3 3 1 7 9 10 9 9
5 7 4 7 5 3 5 8 10 8 7 7 6 6 7 7 6 6 5 5 6 6 6 5 5 4 2 0 2 4 6 7 4 3 2 2 6 3 2 8 8 9 9
5 5 5 4 4 4 3 7 5 7 9 9 8 6 6 5 6 7 6 3 2 3 4 4 3 3 2 1 2 3 4 6 4 3 3 3 7 1 1 3 6 7 7
4 5 5 3 3 3 5 6 9 10 9 9 7 7 5 4 4 6 7 7 7 6 4 1 1 1 1 0 2 4 3 1 2 3 2 6 7 4 2 2 2 6 8
2 2 3 4 3 4 4 5 4 5 4 4 3 4 3 4 3 4 4 7 7 7 4 5 4 5 4 2 1 3 1 1 0 3 3 8 8 7 3 4 3 3 5
2 3 3 3 4 5 4 3 3 3 3 4 5 4 4 4 3 3 3 3 3 6 4 4 4 3 3 2 2 1 3 2 1 2 4 7 9 9 6 4 4 5 6
4 2 3 4 5 6 4 4 4 4 3 4 5 4 4 4 4 4 3 4 4 3 3 3 2 5 4 5 4 4 3 2 2 2 4 7 8 10 10 6 5 5 7
6 4 4 5 5 5 6 4 5 4 4 4 4 5 4 4 4 4 4 4 4 3 3 3 4 4 5 4 5 5 5 4 3 2 2 6 6 8 7 6 6 7 9
6 6 4 6 5 5 5 6 4 4 4 4 4 4 6 4 4 4 4 4 4 4 4 4 4 4 3 4 5 5 5 4 5 5 2 2 4 5 6 6 5 6 9
5 7 6 6 5 6 6 5 4 4 5 4 4 5 6 5 5 4 4 4 3 4 5 4 4 3 4 3 4 4 4 5 4 4 4 3 4 5 6 7 7 7 9
6 7 6 5 6 6 6 4 4 4 4 4 4 4 6 6 6 5 4 4 4 4 4 3 3 3 3 3 3 4 4 4 5 4 4 3 3 3 5 8 9 10 7
7 7 7 6 7 7 6 5 5 6 5 4 4 4 5 6 6 5 4 4 4 4 4 3 2 2 2 3 3 4 4 4 5 3 5 4 5 3 3 5 7 7 8
7 6 7 6 7 7 5 5 4 4 4 4 4 4 6 5 6 5 4 5 4 4 4 3 3 2 1 2 3 5 4 4 3 3 5 4 4 4 4 5 5 4 8
6 7 6 7 6 5 3 3 3 3 2 3 4 5 5 4 5 5 4 4 4 4 4 4 3 4 3 4 3 4 3 3 1 2 2 3 4 3 3 3 3 3 4
9 7 6 5 5 3 3 3 3 2 2 3 2 4 5 5 5 5 4 4 4 3 4 5 5 2 2 4 2 1 4 4 3 3 3 3 3 2 3 4 4 5 4
10 9 8 7 6 3 5 4 4 3 3 3 3 3 4 5 5 5 5 5 5 4 4 4 4 5 2 2 3 1 3 2 4 2 2 2 4 3 3 4 4 4 4
8 6 7 7 6 4 4 3 4 3 2 1 1 2 4 6 5 5 5 5 5 3 4 3 3 2 2 2 3 2 1 3 2 4 3 4 4 4 4 4 5 5 4
8 7 6 7 6 5 5 5 4 5 3 2 2 4 4 4 5 4 5 5 4 3 3 3 3 3 1 1 1 3 2 2 4 4 5 3 3 3 3 3 4 4 5
7 6 6 7 5 5 6 6 6 7 5 4 2 2 2 2 3 4 3 4 4 4 4 3 3 3 2 1 1 2 2 2 3 3 3 5 5 3 3 4 3 4 4
Wind_Direction
174 157 159 159 152 144 143 139 136 131 128 130 126 120 114 111 108 109 100 94 93 89 88 88 84 79 72 73 75 74 71 64 60 58 53 59 79 84 84 85 91 99 102
152 163 162 168 157 156 148 140 133 130 131 138 135 124 118 112 110 108 105 99 99 105 105 100 87 82 78 72 71 75 73 69 63 58 48 33 65 91 84 90 96 96 99
149 166 154 145 142 151 141 138 135 131 129 139 140 130 122 117 113 113 107 106 101 88 99 96 88 82 78 71 68 68 62 49 35 47 58 42 62 89 89 90 101 101 102
139 155 137 144 140 139 137 135 136 136 137 136 139 135 128 126 123 118 111 115 111 102 98 98 96 86 75 68 63 61 49 29 22 15 103 55 50 98 102 107 102 102 103
143 164 142 144 140 137 133 133 135 134 130 131 131 133 128 121 122 118 122 115 119 112 109 109 105 94 78 68 61 56 41 30 37 45 129 114 59 112 105 105 99 103 102
152 137 135 143 144 139 136 136 133 133 133 130 131 130 134 128 124 129 132 125 126 125 122 121 117 103 81 63 63 62 51 38 49 42 42 152 194 194 147 127 123 126 124
154 162 148 145 141 136 136 139 139 138 137 133 136 139 137 130 127 131 142 144 147 145 139 137 131 119 89 49 45 57 58 53 44 34 25 1 284 222 172 157 153 145 142
98 124 306 138 123 136 149 142 140 140 144 143 142 143 142 140 139 142 147 151 156 157 156 152 148 144 135 47 22 40 54 50 43 15 351 336 333 340 196 178 170 167 162
99 120 132 107 114 354 254 146 139 145 146 147 142 139 131 132 142 141 139 154 164 167 168 170 168 163 155 113 358 9 29 44 31 1 313 331 303 24 241 192 197 180 178
59 71 77 73 107 159 210 56 87 121 96 91 90 95 108 115 106 109 106 71 179 189 177 177 197 186 189 186 316 333 7 46 12 353 347 289 295 340 354 234 207 217 199
36 40 66 26 44 71 74 60 75 71 74 85 91 90 70 82 80 60 54 58 62 62 45 44 149 272 227 251 315 315 340 69 8 320 318 277 270 254 217 275 286 238 236
80 24 86 88 24 22 9 50 82 83 52 33 98 112 104 71 69 77 41 28 38 32 34 43 44 57 33 27 350 338 294 273 259 291 290 293 248 257 251 250 256 281 229
58 8 31 84 86 89 69 67 56 63 58 55 23 47 73 75 56 55 42 27 46 44 20 31 45 54 46 30 350 320 286 289 278 280 285 310 259 260 257 258 271 267 267
122 68 24 52 82 72 84 81 77 63 50 39 54 30 63 64 53 53 55 50 52 41 54 26 26 52 37 36 31 19 1 330 300 284 288 295 258 255 268 254 257 280 281
137 108 50 60 67 88 86 84 80 75 64 52 55 47 49 65 62 50 40 41 37 30 31 36 40 36 29 11 19 14 355 347 328 293 304 302 296 265 266 266 269 282 289
142 128 118 100 93 79 81 92 89 85 85 78 57 55 60 67 74 63 49 38 32 21 22 32 46 39 38 22 18 6 349 341 335 330 345 326 314 303 305 291 288 305 304
152 137 131 117 105 95 92 86 90 88 84 63 65 60 61 58 62 70 61 41 21 19 27 34 31 34 26 9 5 359 352 338 331 334 327 315 294 285 279 277 279 278 292
136 137 133 115 111 100 93 79 74 82 83 83 69 58 60 65 62 59 54 36 11 28 30 38 29 22 21 8 331 326 317 316 313 317 315 300 286 306 305 289 281 282 292
150 141 126 114 108 101 85 79 60 58 57 57 52 52 51 54 56 65 53 32 34 43 34 17 29 41 4 344 319 314 300 285 286 299 288 286 292 303 295 300 310 301 299
145 135 124 115 115 103 92 83 67 64 46 43 51 45 40 40 53 62 51 40 34 40 26 21 25 337 333 343 314 309 290 289 297 290 281 288 273 282 299 311 310 305 296
146 141 145 134 141 129 109 104 77 93 65 59 46 46 54 52 52 49 45 38 34 51 39 25 6 10 340 6 344 325 316 319 356 345 332 291 280 261 269 305 283 303 298
160 154 146 146 152 150 126 134 127 141 96 98 57 44 41 56 55 72 64 54 44 47 37 34 35 355 327 22 356 304 341 337 341 354 1 0 24 343 341 337 338 303 317
165 164 156 150 147 140 129 112 86 74 52 34 23 30 10 45 53 66 58 54 43 41 42 45 36 44 351 324 8 210 347 303 321 299 29 26 16 9 335 333 343 336 320
172 147 139 140 138 127 138 115 121 126 121 77 46 17 32 36 39 47 49 55 48 32 33 8 38 56 36 354 322 38 125 238 300 318 328 336 349 351 353 338 332 322 310
142 145 141 132 121 112 102 111 110 96 90 81 60 51 21 17 32 37 44 33 24 18 359 353 5 32 93 40 359 325 308 282 238 245 290 326 335 334 325 327 325 318 313
125 123 123 119 102 104 103 105 114 121 123 108 71 49 11 352 354 12 39 28 17 8 358 344 325 296 273 148 275 323 331 335 336 317 315 317 290 305 313 312 301 301 310